Select NOAA-NWS Forecast Office Text Products

(Product availability varies with seasons, forecast office, and weather.)

Regional Weather Roundup for Pendleton, OR

To Select Another NWS Office Click on Map or Choose from List

County Warning Area MAP
Select Forecast Office:   Select Product:  
000
ASUS46 KPDT 040804
RWRPDT
PENDLETON REGIONAL WEATHER ROUNDUP
NATIONAL WEATHER SERVICE PENDLETON OREGON
100 AM PDT MON JUL 4 2022

NOTE: FAIR INDICATES FEW OR NO CLOUDS BELOW 12,000 FEET WITH NO
SIGNIFICANT WEATHER AND/OR OBSTRUCTIONS TO VISIBILITY.

# INDICATES UNOFFICIAL STATION AND DATA

WAZ520-040910-
EAST SLOPES OF WASHINGTON CASCADES

CITY            SKY/WX      TMP DP  RH  WIND    PRES   REMARKS
#BULLFROG       N/A         51  44  77  MISG    N/A
#CLE ELUM HS    N/A         51  44  77  MISG    29.86F
#ELK HTS DOT    N/A         51  51  100 MISG    N/A
#GLENWOOD       N/A         45  41  86  MISG    29.86S
#NILE           N/A         49  42  77  MISG    29.23F
#TROUT LAKE 1NE N/A         48  43  83  MISG    29.86S
#TROUT LAKE 1E  N/A         47  44  89  MISG    29.93S
$$

WAZ521-040910-
SIMCOE HIGHLANDS

CITY            SKY/WX      TMP DP  RH  WIND    PRES   REMARKS
#SATUS PASS DOT N/A         47  41  79  MISG    N/A
#CENTERVILLE 1SWN/A         54  45  71  MISG    29.79S
#LYLE 6NE       N/A         56  47  72  MISG    29.87R
#PITT 4SE       N/A         49  44  83  MISG    29.88S
$$

WAZ026-040910-
KITTITAS VALLEY

CITY            SKY/WX      TMP DP  RH  WIND    PRES   REMARKS
ELLENSBURG AP   FAIR        55  44  66  NW20G26 29.87S
#ELLENSBURG CWU N/A         54  44  69  MISG    29.77F
#ELLENSBURG 1E  N/A         55  45  69  MISG    29.85S
#MANASTASH RDG  N/A         49  42  77  MISG    N/A
#ROCKY CYN DOT  N/A         51  45  80  MISG    N/A
#RYEGRASS DOT   N/A         50  42  74  MISG    N/A
#THORP 6N       N/A         52  46  80  MISG    29.78F
$$

WAZ027-040910-
YAKIMA VALLEY

CITY            SKY/WX      TMP DP  RH  WIND    PRES   REMARKS
SUNNYSIDE AP    FAIR        63  45  52  W9      29.83F
YAKIMA AIRPORT  FAIR        60  42  51  N10     29.85S
#MABTON         N/A         63  48  58  MISG    29.83F
#NACHES 2SW     N/A         53  42  66  MISG    29.86S
#OUTLOOK DOT    N/A         62  43  50  MISG    N/A
#PARKER DOT     N/A         61  41  48  MISG    N/A
#TERRACE HTS    N/A         59  43  55  MISG    29.77S
#TOPPENISH      N/A         62  45  54  MISG    29.73F
#I82 S UMTANUM RN/A         53  40  61  MISG    N/A
#UNION GAP DOT  N/A         60  43  53  MISG    N/A
$$

WAZ028-040910-
LOWER COLUMBIA BASIN...WASHINGTON

CITY            SKY/WX      TMP DP  RH  WIND    PRES   REMARKS
PASCO           FAIR        64  48  56  N5      29.85R
PROSSER AWOS    N/A         63  46  54  W8      29.86S
RICHLAND AWOS   FAIR        64  47  54  W5      29.84R
#BASIN CITY 5SW N/A         59  48  67  MISG    29.81R
#BENTON CITY    N/A         62  46  56  MISG    29.71S
#CONNELL 5N     N/A         57  49  75  MISG    29.79R
#ELTOPIA 6NW    N/A         58  48  69  MISG    28.81R
#KAHLOTUS       N/A         61  52  72  MISG    29.78R
#KENNEWICK 3S   N/A         64  50  60  MISG    29.81R
#PROSSER DOT    N/A         65  44  46  MISG    N/A
#SAGEMOOR 2W    N/A         60  47  62  MISG    29.80R
#TOUCHET 2S     N/A         63  49  60  MISG    29.80R
$$

WAZ029-040910-
FOOTHILLS OF THE BLUES...WASHINGTON

CITY            SKY/WX      TMP DP  RH  WIND    PRES   REMARKS
WALLA WALLA AP  FAIR        63  46  54  S14     29.86S
#CLYDE 6NW      N/A         61  51  70  MISG    29.81S
#DELANEY DOT    N/A         66  49  54  MISG    N/A
#LOWDEN 2SE     N/A         62  50  65  MISG    29.81R
#PRESCOTT       N/A         64  50  60  MISG    29.80R
#WALLA WALLA 5E N/A         62  50  65  MISG    N/A
#WHITMAN MISSIONN/A         64  50  60  MISG    29.83R
$$

WAZ030-040910-
BLUE MOUNTAINS...WASHINGTON

CITY            SKY/WX      TMP DP  RH  WIND    PRES   REMARKS
$$

ORZ009-041-WAZ024-040910-
COLUMBIA RIVER GORGE

CITY            SKY/WX      TMP DP  RH  WIND    PRES   REMARKS
HOOD RIVER AP   FAIR        54  46  74  CALM    29.90F
THE DALLES AP   FAIR        65  48  54  NW17    29.88S
#CELILO DOT     N/A         65  45  48  MISG    N/A
#LYLE           N/A         63  50  62  MISG    29.90R
#RUFUS DOT      N/A         65  47  52  MISG    N/A

$$

ORZ510-040910-
NORTH CENTRAL OREGON

CITY            SKY/WX      TMP DP  RH  WIND    PRES   REMARKS
#ANTELOPE       N/A         53  46  77  MISG    29.72R
#COW CYN RST AREN/A         54  40  59  MISG    N/A
#DUFUR          N/A         49  43  80  MISG    29.84R
#DUFUR 9E       N/A         53  46  77  MISG    29.91S
#GRASS VALLEY 1SN/A         50  43  77  MISG    29.82R
#KENT DOT       N/A         50  36  58  MISG    N/A
#SHANIKO 5WSW   N/A         53  38  57  MISG    N/A
#WAPANITIA AIRPON/A         55  46  72  MISG    29.85S
#WASCO DOT      N/A         56  47  72  MISG    N/A
#WASCO 5NE      N/A         56  46  69  MISG    29.82S
$$

ORZ511-040910-
CENTRAL OREGON

CITY            SKY/WX      TMP DP  RH  WIND    PRES   REMARKS
BEND AIRPORT    FAIR        54  48  80  CALM    29.96F
MADRAS AIRPORT  FAIR        54  43  66  CALM    29.96R
PRINEVILLE AP   CLOUDY      55  46  72  N3      29.96S
REDMOND AIRPORT CLOUDY      56  48  74  CALM    29.95S
#ASHWOOD SCHOOL N/A         54  51  90  MISG    29.91R
#BEND-KIM LN    N/A         53  46  77  MISG    29.78S
#CULVER         N/A         55  43  64  MISG    29.29R
#PRINEVILLE     N/A         56  50  80  MISG    29.92R

$$


ORZ509-040910-
EAST SLOPES OF OREGON CASCADES

CITY            SKY/WX      TMP DP  RH  WIND    PRES   REMARKS
SISTERS AWOS    N/A         55  45  69  MISG    29.93R
SUNRIVER AWOS   CLOUDY      50  45  83  CALM    30.01S
#BLUE BOX PASS  N/A         47  N/A N/A MISG    N/A
#CAMP SHERMAN   N/A         54  44  69  MISG    29.88R
#LA PINE DOT    N/A         51  47  86  MISG    N/A
#SISTERS ODOT   N/A         54  43  66  MISG    N/A
#WANOGA BUTTE D N/A         44  39  82  MISG    N/A

$$

ORZ044-040910-
LOWER COLUMBIA BASIN...OREGON

CITY            SKY/WX      TMP DP  RH  WIND    PRES   REMARKS
HERMISTON       PTCLDY      65  47  52  W10     29.84F
#BOARDMAN SCHOOLN/A         64  49  58  MISG    29.78S
#ECHO 8SW       N/A         64  48  56  MISG    29.87S
#I-84 EX 198 DOTN/A         62  47  58  MISG    N/A
#UMATILLA       N/A         65  47  52  MISG    29.74S
$$

ORZ507-040910-
NORTHERN FOOTHILLS OF THE BLUES

CITY            SKY/WX      TMP DP  RH  WIND    PRES   REMARKS
PENDLETON AIRPT FAIR        63  45  52  CALM    29.88S
#CAYUSE         N/A         60  47  62  MISG    29.81S
#HELIX SCHOOL   N/A         57  47  69  MISG    29.82S
#HOLDMAN 6E     N/A         57  47  69  MISG    29.62R
#M-FREEWATER 5SEN/A         63  48  58  MISG    29.87S
#PDT SUNRIDGE   N/A         63  45  52  MISG    29.83F
#PENDLETON 6SE  N/A         58  48  69  MISG    29.78R
#TUTUILLA       N/A         57  49  75  MISG    29.93R
#UMAPINE 2E     N/A         63  49  60  MISG    29.82R

$$

ORZ508-040910-
SOUTHERN FOOTHILLS OF THE BLUES

CITY            SKY/WX      TMP DP  RH  WIND    PRES   REMARKS
LEXINGTON       MOCLEAR     61  45  56  SW6     29.92R
#AJAX           N/A         56  44  64  MISG    29.91S
#HEPPNER EOC    N/A         58  47  67  MISG    29.76S
#HEPPNER 4NE    N/A         55  45  69  MISG    29.81F
#OLEX 4N        N/A         59  48  67  MISG    29.84R
#RUGGS 2SW      N/A         54  48  80  MISG    29.86R

$$

ORZ502-503-040910-
BLUE MOUNTAINS

CITY            SKY/WX      TMP DP  RH  WIND    PRES   REMARKS
MEACHAM         FAIR        50  49  96  CALM    29.94F
#BATTLE MTN DOT N/A         49  40  71  MISG    N/A
#LADD CYN SMT   N/A         50  49  96  MISG    N/A
#LADD CREEK ODOTN/A         52  50  93  MISG    N/A
#N POWDER DOT   N/A         53  51  93  MISG    N/A
#TOLLGATE       N/A         47  42  83  MISG    30.01S
#TROY SCHOOL    N/A         58  55  90  MISG    29.67R
#WESTON 4E      N/A         54  45  71  MISG    29.80S
$$

ORZ505-040910-
JOHN DAY BASIN

CITY            SKY/WX      TMP DP  RH  WIND    PRES   REMARKS
JOHN DAY        MOCLDY      56  46  69  CALM    29.93F
#DAYVILLE SCHOOLN/A         60  47  62  MISG    29.86S
#MITCHELL 8NW   N/A         53  47  80  MISG    29.86R
#MONUMENT HS    N/A         60  51  72  MISG    29.68R
#MT. VERNON 5SE N/A         55  45  69  MISG    29.95R
$$

ORZ506-040910-
OCHOCO AND JOHN DAY HIGHLANDS

CITY            SKY/WX      TMP DP  RH  WIND    PRES   REMARKS
#BUCK CREEK DOT N/A         53  40  61  MISG    N/A
#HORSE RIDGE DO N/A         50  47  89  MISG    N/A
#KEYES SMT DOT  N/A         49  47  93  MISG    N/A
#PAULINA ODOT   N/A         56  44  64  MISG    N/A
#PRAIRIE CITY   N/A         51  49  93  MISG    29.86S
#SENECA 9NW     N/A         52  44  74  MISG    29.75R
$$

ORZ049-040910-
GRANDE RONDE VALLEY

CITY            SKY/WX      TMP DP  RH  WIND    PRES   REMARKS
LA GRANDE       FAIR        54  52  93  NW6     29.91S
#COVE SCHOOL    N/A         53  50  89  MISG    29.92S
#COVE 6NW       N/A         54  51  90  MISG    29.80S
#ELGIN 1E       N/A         55  49  80  MISG    N/A
#IMBLER SCHOOL  N/A         54  51  90  MISG    29.87S
#ISLAND CITY 4N N/A         51  48  89  MISG    29.95S
#LADD CYN DOT   N/A         54  52  93  MISG    N/A
#UNION 1S       N/A         54  52  93  MISG    29.80R
$$

ORZ050-040910-
WALLOWA COUNTY

CITY            SKY/WX      TMP DP  RH  WIND    PRES   REMARKS
JOSEPH AIRPORT  FAIR        48  46  93  MISG    29.95F
#ENTERPRISE HS  N/A         52  49  89  MISG    29.68F
#JOSEPH 3N      N/A         49  43  80  MISG    29.98F
#LOSTINE 3SE    N/A         52  49  89  MISG    30.01F
#MT HOWARD 8000 N/A         41  N/A N/A MISG    30.03F
#WALLOWA LAKE   N/A         49  48  96  MISG    30.00F
#WALLOWA SCHOOL N/A         53  50  89  MISG    29.80R



$$

Previous Regional Weather Roundups may be found at
NWS Pendleton, OR (PDT) Office Regional Weather Roundups.
(Click 'Previous Version' there to view past versions successively.
Some may differ only in time posted.)

San Juan, PRHonolulu, HI Lake Charles, LA Pueblo, CO Corpus Christi, TX St. Louis, MO Reno, NV Raleigh, NC  Newport/Morehead City, NC Dodge City, KS Houston/Galveston, TX San Joaquin Valley/Hanford, CA Louisville, KY Fort Worth, TX Pittsburgh, PA Austin/San Antonio, TX Sacramento, CA Jackson, MS Phoenix, AZ Northern Indiana, IN Flagstaff, AZ Tallahassee, FL Springfield, MO Riverton, WY Blacksburg, VA Sioux Falls, SD El Paso Area, NM Columbia, SC Wilmington, NC Greenville-Spartanburg, SC Eureka, CA Midland/Odessa, TX Tucson, AZ Goodland, KS Huntsville, AL Amarillo, TX Norman, OK Lubbock, TX Marquette, MI Little Rock, AR Pendleton, OR Missoula, MT Binghamton, NY Boston, MA Green Bay, WI Billings, MT Baltimore/Washington San Diego, CA Tampa Bay, FL Morristown, TN Twin Cities, MN Brownsville, TX Portland, OR Des Moines, IA Memphis, TN Pocatello, ID San Angelo, TX Jacksonville, FL Aberdeen, SD Quad Cities, IA/IL Charleston, SC New Orleans/Baton Rouge, LA Peachtree City, GA Shreveport, LA Grand Rapids, MI Medford, OR Albany, NY Wichita, KS Gray/Portland, ME Spokane, WA Boise, ID Denver/Boulder, CO Great Falls, MT Caribou, ME Key West, FL Miami-South Florida, FL New York City/Upton, NY Melbourne, FL Hastings, NE Paducah, KY Glasgow, MT Bismarck, ND Charleston WV Omaha/Valley, NE Buffalo, NY Jackson, KY Kansas City/Pleasant Hill, MO Gaylord, MI Cheyenne, WY Grand Forks, ND Detroit/Pontiac, MI Central Illinois, IL Burlington, VT Salt Lake City, UT Topeka, KS Nashville, TN Milwaukee/Sullivan, WI Albuquerque, NM Las Vegas, NV Wakefield, VA La Crosse, WI Birmingham, AL Los Angeles/Oxnard, CA Chicago, IL Seattle, WA Rapid City, SD Indianapolis, IN Philadelphia/Mount Holly, PA Mobile/Pensacola State College, PA Cleveland, OH Elko, NV Wilmington, OH Grand Junction, CO North Platte, NE Tulsa, OK San Francisco/Monterey Bay Area, CA Duluth, MN Anchorage, AK Fairbanks, AK Juneau, AK Tiyan, GU

Products Courtesy of NOAA-NWS
NWS Information Parsing Script by Ken True at Saratoga Weather - WFO and Products Scripts by SE Lincoln Weather.
Mapping by Curly at Michiana Weather and by Tom at My Mishawaka Weather.